OBJECT D, 60748

Orbit data source: Space-Track

You're viewing an Uncataloged Satellite

Recently launched and/or uncataloged satellites may have evolving metadata. Metadata may include but not limited to: Owner, Maufacturer, Bus, Motor, and Mission.

OBJECT D, 60748 is a Chinese satellite in SSO that was launched on Thu, 29 Aug 2024 UTC via a GUSHENXING 1 launch vehicle from the Yellow Sea Launch Area, China (YSLA). Unknown objects in Earth's orbit typically refer to objects detected orbiting the Earth but have not yet been identified or cataloged. These objects could be anything from previously untracked satellites, spent rocket stages, debris from satellite collisions, or even natural meteoroids temporarily captured by Earth's gravity.

Loading next visibility...
Identifier
60748, 2024-153D
Orbit
SSO
Last TLE update
8 hours ago
Origin
Flag of CNJTXZ (CN / PRC)
Manufacturer
JTXZ
Mission
Operational Commercial Imaging
Bus & Motor
JTX, Unknown motor
Mass
~50 kg wet, ~50 kg dry
Launch date (UTC)
2024-08-29 (10 months ago)
Launch vehicle
GUSHENXING 1
Launch site
Yellow Sea Launch Area, China (YSLA)
Object type
Unknown
Shape & HBR
Box + 1 Pan, 5 m
Radar Cross Section
5.339 m², Medium (>0.1 m² and < 1m²)

Expand to show TLE details & history

TLE from 8 hours ago
0 OBJECT D
1 60748U 24153D   25191.79197226  .00007933  00000-0  31864-3 0  9998
2 60748  97.6436 317.9239 0011486 271.9213  88.0709 15.25175725 47880
Epoch: 2025-07-10T19:00Z
TLE epoch observation values (Epoch: 2025-07-10T19:00:26.403Z)
Latitude
0.00001°
Longitude
103.86071°
Altitude
493.092 km
Speed
7.618 km/s
True Right ascension
21h 11m 41s
True Declination
0° 00' 00"
Sunlit
Object was in full shadow at epoch
Visualization orbit readout
Latitude
-31.04163°
Longitude
108.79707°
Altitude
497.811 km
Speed
7.617 km/s
Apparent Right ascension
23h 57m 49s
Apparent Declination
-43° 00' 20"
Sunlit
Object is in full shadow
Visualization observer readout
Local Sidereal Time
15:01:14
Azimuth
110.512° ESE
Elevation
-55.926°
Doppler factor
1
Orbital elements
Apogee altitude
495.113 km
Perigee altitude
479.342 km
Semi-major axis
6,865.364 km
Eccentricity
0.00115
Inclination
97.6436°
RAAN
317.9239°
Arg. of periapsis
271.9213°
True anomaly
Unknown
Mean anomaly
88.0709°
Eccentric anomaly
Unknown
Mean motion
3.81547 °/min
Orbital period
94.35 mins
BSTAR
0.00031864
Loading maneuver chart data...
Loading SW <> Apogee altitude chart data...
Loading historical data...
Loading historical data...
Loading historical data...
Loading historical data...
Loading historical data...
Loading historical data...
Loading historical data...

OBJECT D Visibility forecast

Observer location: undefined°, undefined°

Span
Click to sort rows by Start time (UTC) header in descending order
Start Az.
Max El. time (UTC)
Max El. Az.
Max El.
End time (UTC)
End Az.
5 mins2025-07-11 07:44:38.016Z123.295° SE2025-07-11 07:47:38.016Z64.328° ENE21.966°2025-07-11 07:49:38.016Z23.586° NE
4 mins2025-07-11 20:47:38.016Z57.275° ENE2025-07-11 20:48:38.016Z84.412° E26.701°2025-07-11 20:51:38.016Z156.017° SSE
|